GW3385 Weather Reports


time (UTC)temp
F
wind
direction
speed
knots
gust
knots
rain 1hr
in
rain 24hr
in
rain mn
in
humidity
%
barometer
mb
20260506120555 53 332 0.0 1.7 0.00 0.00 0.00 87 1016.0
20260506120058 53 0 0.0 1.7 0.00 0.00 0.00 87 1016.0
20260506115552 53 0 0.0 1.7 0.00 0.00 0.00 87 1015.9
20260506115052 53 321 0.0 0.0 0.00 0.00 0.00 87 1015.9
20260506114605 53 0 0.0 0.9 0.00 0.00 0.00 87 1015.9
20260506114058 53 0 0.0 1.7 0.00 0.00 0.00 87 1016.0
20260506113552 53 0 0.0 1.7 0.00 0.00 0.00 87 1015.9
20260506113055 54 0 0.0 1.7 0.00 0.00 0.00 87 1015.9
20260506112556 54 0 0.0 0.9 0.00 0.00 0.00 87 1015.9
20260506112052 54 0 0.0 1.7 0.00 0.00 0.00 87 1015.8
20260506111555 54 0 0.0 2.6 0.00 0.00 0.00 87 1015.9
20260506111055 54 0 0.0 2.6 0.00 0.00 0.00 87 1015.8
20260506110555 54 0 0.9 2.6 0.00 0.00 0.00 87 1015.8
20260506110104 54 325 0.0 0.9 0.00 0.00 0.00 87 1015.9
20260506105558 54 0 0.0 1.7 0.00 0.00 0.00 87 1015.8
20260506105054 54 0 0.0 1.7 0.00 0.00 0.00 87 1015.9
20260506104553 54 0 0.0 1.7 0.00 0.00 0.00 87 1016.0
20260506104054 54 0 0.0 0.0 0.00 0.00 0.00 87 1016.0
20260506103554 54 0 0.0 0.0 0.00 0.00 0.00 87 1015.9
20260506103059 54 0 0.0 0.0 0.00 0.00 0.00 87 1015.9
20260506102555 54 0 0.0 0.0 0.00 0.00 0.00 87 1016.0
20260506102055 54 0 0.0 0.0 0.00 0.00 0.00 87 1015.9
20260506101603 54 0 0.0 2.6 0.00 0.00 0.00 87 1016.0
20260506101055 54 0 0.9 2.6 0.00 0.00 0.00 87 1015.9
20260506100555 54 0 0.0 1.7 0.00 0.00 0.00 87 1015.9
20260506100055 54 0 0.0 1.7 0.00 0.00 0.00 87 1015.9
20260506095559 54 0 0.0 1.7 0.00 0.00 0.00 87 1016.0
20260506095055 54 0 0.0 3.5 0.00 0.00 0.00 87 1016.1
20260506094622 54 0 0.9 3.5 0.00 0.00 0.00 87 1016.0
20260506094054 54 351 0.0 2.6 0.00 0.00 0.00 87 1016.0
20260506093556 54 0 0.0 2.6 0.00 0.00 0.00 87 1016.0
20260506093058 54 0 0.0 2.6 0.00 0.00 0.00 87 1016.0
20260506092555 54 321 0.0 1.7 0.00 0.00 0.00 87 1016.0
20260506092055 54 0 0.0 1.7 0.00 0.00 0.00 87 1015.9
20260506091556 54 0 0.0 1.7 0.00 0.00 0.00 87 1016.0
20260506091054 54 0 0.0 0.9 0.00 0.00 0.00 87 1016.1
20260506090554 54 0 0.0 0.9 0.00 0.00 0.00 87 1016.1
20260506085555 54 0 0.0 2.6 0.00 0.00 0.00 87 1016.3
20260506085055 54 0 0.9 3.5 0.00 0.00 0.00 87 1016.2
20260506084554 54 349 0.9 3.5 0.00 0.00 0.00 87 1016.3
20260506084058 54 0 1.7 3.5 0.00 0.00 0.00 87 1016.3
20260506083555 54 338 1.7 3.5 0.00 0.00 0.00 86 1016.4
20260506083103 54 343 1.7 2.6 0.00 0.00 0.00 86 1016.2
20260506082558 54 331 0.0 0.9 0.00 0.00 0.00 86 1016.3
20260506082055 54 0 0.0 0.9 0.00 0.00 0.00 86 1016.3
20260506081555 54 0 0.0 1.7 0.00 0.00 0.00 86 1016.4
20260506081054 54 0 0.0 2.6 0.00 0.00 0.00 86 1016.4
20260506080556 54 0 0.0 3.5 0.00 0.00 0.00 86 1016.5
20260506073058 54 323 1.7 3.5 0.00 0.00 0.00 85 1016.5
20260506072555 54 339 0.0 1.7 0.00 0.00 0.00 85 1016.5
20260506072052 54 0 0.0 0.0 0.00 0.00 0.00 85 1016.5
20260506071557 54 0 0.0 0.0 0.00 0.00 0.00 85 1016.5
20260506071056 54 0 0.0 0.0 0.00 0.00 0.00 85 1016.5
20260506070552 54 0 0.0 0.0 0.00 0.00 0.00 85 1016.4
20260506070104 54 0 0.0 0.0 0.00 0.00 0.00 84 1016.3
20260506062052 55 338 0.9 3.5 0.00 0.00 0.00 84 1015.9
20260506061600 55 345 1.7 3.5 0.00 0.00 0.00 84 1016.0
20260506061053 55 0 0.0 2.6 0.00 0.00 0.00 83 1016.0
20260506060553 55 352 0.9 2.6 0.00 0.00 0.00 83 1015.9
20260506060104 55 0 0.0 2.6 0.00 0.00 0.00 83 1015.9
20260506051052 56 0 0.0 1.7 0.00 0.00 0.00 80 1015.4
20260506050552 56 346 0.0 1.7 0.00 0.00 0.00 80 1015.5
20260506045052 57 352 0.0 1.7 0.00 0.00 0.00 79 1015.3
20260506044555 57 0 0.0 1.7 0.00 0.00 0.00 79 1015.2
20260506044052 57 352 0.0 1.7 0.00 0.00 0.00 79 1015.1
20260506043552 58 0 0.0 1.7 0.00 0.00 0.00 78 1015.0
20260506043053 58 0 0.0 1.7 0.00 0.00 0.00 78 1015.0
20260506042552 58 339 0.0 1.7 0.00 0.00 0.00 77 1014.9
20260506042055 58 0 0.0 1.7 0.00 0.00 0.00 76 1014.9
20260506041556 58 0 0.0 1.7 0.00 0.00 0.00 76 1014.8
20260506041052 58 0 0.0 3.5 0.00 0.00 0.00 76 1014.8
20260506040552 58 0 0.0 3.5 0.00 0.00 0.00 76 1014.6
20260506040101 58 0 0.9 3.5 0.00 0.00 0.00 77 1014.6
20260506035551 58 273 0.9 3.5 0.00 0.00 0.00 76 1014.6
20260506035053 58 0 0.9 3.5 0.00 0.00 0.00 76 1014.6
20260506034606 59 266 0.9 3.5 0.00 0.00 0.00 76 1014.5
20260506034052 59 279 0.0 3.5 0.00 0.00 0.00 76 1014.5
20260506033552 59 279 0.0 1.7 0.00 0.00 0.00 76 1014.4
20260506033054 59 285 0.0 5.2 0.00 0.00 0.00 76 1014.4
20260506032552 59 287 0.9 6.1 0.00 0.00 0.00 76 1014.4
20260506032058 59 275 0.9 6.1 0.00 0.00 0.00 76 1014.2
20260506031600 59 274 3.5 7.0 0.00 0.00 0.00 76 1014.2
20260506031057 59 0 1.7 7.8 0.00 0.00 0.00 75 1013.9
20260506030551 59 273 4.3 7.8 0.00 0.00 0.00 75 1013.9
20260506030056 59 302 1.7 7.8 0.00 0.00 0.00 76 1014.0
20260506025552 59 307 2.6 7.8 0.00 0.00 0.00 76 1013.9
20260506025052 59 293 2.6 8.7 0.00 0.00 0.00 75 1013.9
20260506024554 59 276 2.6 8.7 0.00 0.00 0.00 75 1013.7
20260506024053 59 213 4.3 9.6 0.00 0.00 0.00 75 1013.8
20260506023553 59 196 1.7 9.6 0.00 0.00 0.00 75 1013.7
20260506023056 59 264 4.3 8.7 0.00 0.00 0.00 74 1013.6
20260506022552 60 267 1.7 10.4 0.00 0.00 0.00 75 1013.5
20260506022052 60 294 3.5 10.4 0.00 0.00 0.00 75 1013.4
20260506021557 60 263 5.2 10.4 0.00 0.00 0.00 74 1013.3
20260506021055 60 288 3.5 8.7 0.00 0.00 0.00 73 1013.3
20260506020554 60 195 3.5 7.8 0.00 0.00 0.00 74 1013.2
20260506015555 60 292 6.1 10.4 0.00 0.00 0.00 72 1013.2
20260506015055 60 228 3.5 9.6 0.00 0.00 0.00 73 1013.2
20260506014555 60 218 4.3 9.6 0.00 0.00 0.00 73 1013.3
20260506014053 60 211 3.5 9.6 0.00 0.00 0.00 73 1013.3
20260506013555 60 181 1.7 9.6 0.00 0.00 0.00 73 1013.3
20260506013057 60 286 3.5 9.6 0.00 0.00 0.00 73 1013.3
20260506012552 60 266 5.2 8.7 0.00 0.00 0.00 73 1013.3
20260506012053 59 225 3.5 7.8 0.00 0.00 0.00 74 1013.3
20260506011601 59 207 2.6 9.6 0.00 0.00 0.00 74 1013.2
20260506011057 59 265 5.2 9.6 0.00 0.00 0.00 74 1013.2
20260506010558 59 251 4.3 10.4 0.00 0.00 0.00 74 1013.3
20260506010058 59 267 4.3 10.4 0.00 0.00 0.00 74 1013.2
20260506005552 59 231 5.2 10.4 0.00 0.00 0.00 74 1013.2
20260506005052 59 212 6.1 10.4 0.00 0.00 0.00 74 1013.1
20260506004559 59 281 4.3 10.4 0.00 0.00 0.00 74 1013.2
20260506004055 59 254 3.5 10.4 0.00 0.00 0.00 74 1013.2
20260506003554 59 300 6.1 12.2 0.00 0.00 0.00 73 1013.2
20260506003056 59 229 6.1 12.2 0.00 0.00 0.00 73 1013.2
20260506002556 59 254 7.0 11.3 0.00 0.00 0.00 72 1013.1
20260506002054 60 319 7.0 11.3 0.00 0.00 0.00 71 1013.1
20260506001554 60 287 5.2 11.3 0.00 0.00 0.00 71 1013.1
20260506001053 60 269 5.2 13.9 0.00 0.00 0.00 71 1013.0
20260506000552 60 243 5.2 13.9 0.00 0.00 0.00 71 1013.0
20260506000055 61 244 5.2 11.3 0.00 0.00 0.00 71 1013.1
20260505235556 61 272 5.2 11.3 0.00 0.00 0.00 71 1013.1
20260505235053 60 214 3.5 12.2 0.00 0.00 0.00 71 1013.2
20260505234600 60 251 7.0 13.0 0.00 0.00 0.00 71 1013.2
20260505234052 61 243 7.0 14.8 0.00 0.00 0.00 71 1013.2
20260505233552 61 270 6.1 14.8 0.00 0.00 0.00 72 1013.2
20260505233111 61 284 7.8 14.8 0.00 0.00 0.00 71 1013.1
20260505232555 61 163 7.0 13.0 0.00 0.00 0.00 72 1013.1
20260505232055 60 271 6.1 13.9 0.00 0.00 0.00 74 1013.1
20260505231557 60 271 7.0 13.9 0.00 0.00 0.00 74 1013.1
20260505231059 60 235 6.1 13.0 0.00 0.00 0.00 75 1013.2
20260505230552 59 241 7.8 13.0 0.00 0.00 0.00 75 1013.2
20260505225553 59 247 7.0 15.6 0.00 0.00 0.00 76 1013.3
20260505225053 59 305 7.8 13.0 0.00 0.00 0.00 76 1013.4
20260505224557 59 254 6.1 13.9 0.00 0.00 0.00 75 1013.5
20260505224053 59 262 7.8 15.6 0.00 0.00 0.00 74 1013.5
20260505223552 59 271 7.8 15.6 0.00 0.00 0.00 74 1013.4
20260505223101 60 263 6.1 12.2 0.00 0.00 0.00 75 1013.4
20260505222552 60 209 6.1 17.4 0.00 0.00 0.00 73 1013.4
20260505222052 61 255 5.2 17.4 0.00 0.00 0.00 73 1013.4
20260505221558 61 203 5.2 17.4 0.00 0.00 0.00 73 1013.5
20260505221051 61 239 7.0 17.4 0.00 0.00 0.00 71 1013.5
20260505220559 61 246 7.0 17.4 0.00 0.00 0.00 70 1013.5
20260505220056 61 269 7.8 13.9 0.00 0.00 0.00 69 1013.6
20260505215555 62 276 5.2 13.9 0.00 0.00 0.00 70 1013.6
20260505215055 61 259 7.0 13.9 0.00 0.00 0.00 69 1013.5
20260505214559 61 256 6.1 13.0 0.00 0.00 0.00 69 1013.6
20260505214055 61 278 6.1 13.0 0.00 0.00 0.00 69 1013.6
20260505213555 61 236 7.0 14.8 0.00 0.00 0.00 66 1013.7
20260505213056 62 167 7.0 14.8 0.00 0.00 0.00 65 1013.6
20260505212552 62 234 7.8 14.8 0.00 0.00 0.00 64 1013.5
20260505212055 62 284 6.1 12.2 0.00 0.00 0.00 63 1013.6
20260505211609 62 250 5.2 12.2 0.00 0.00 0.00 63 1013.6
20260505211056 62 205 4.3 11.3 0.00 0.00 0.00 64 1013.7
20260505210555 61 283 5.2 11.3 0.00 0.00 0.00 63 1013.7
20260505210059 61 254 3.5 12.2 0.00 0.00 0.00 62 1013.8
20260505205551 61 279 8.7 13.0 0.00 0.00 0.00 62 1013.8
20260505205055 62 306 6.1 13.9 0.00 0.00 0.00 64 1013.7
20260505204600 61 232 6.1 13.9 0.00 0.00 0.00 64 1013.6
20260505204052 61 246 6.1 13.9 0.00 0.00 0.00 65 1013.6
20260505203557 61 242 8.7 15.6 0.00 0.00 0.00 64 1013.7
20260505203058 61 242 6.1 15.6 0.00 0.00 0.00 66 1013.7
20260505202552 62 296 7.8 15.6 0.00 0.00 0.00 66 1013.6
20260505202056 62 239 6.1 15.6 0.00 0.00 0.00 63 1013.6
20260505201600 61 278 9.6 13.9 0.00 0.00 0.00 62 1013.6
20260505201056 62 297 7.8 13.9 0.00 0.00 0.00 64 1013.6
20260505200556 62 302 8.7 13.9 0.00 0.00 0.00 64 1013.6
20260505200100 62 219 5.2 11.3 0.00 0.00 0.00 60 1013.7
20260505195555 61 229 6.1 13.9 0.00 0.00 0.00 58 1013.8
20260505195052 62 185 5.2 13.9 0.00 0.00 0.00 60 1013.8
20260505194608 62 266 5.2 11.3 0.00 0.00 0.00 60 1013.8
20260505194052 62 292 6.1 12.2 0.00 0.00 0.00 62 1013.9
20260505193554 62 207 5.2 12.2 0.00 0.00 0.00 63 1013.9
20260505193057 61 235 6.1 12.2 0.00 0.00 0.00 66 1013.9
20260505192555 61 272 6.1 12.2 0.00 0.00 0.00 63 1014.0
20260505192052 62 196 5.2 13.0 0.00 0.00 0.00 62 1013.9
20260505191554 61 270 4.3 13.0 0.00 0.00 0.00 63 1013.8
20260505191054 61 196 5.2 14.8 0.00 0.00 0.00 63 1013.9
20260505190552 61 250 4.3 14.8 0.00 0.00 0.00 63 1013.9
20260505190058 62 184 6.1 13.0 0.00 0.00 0.00 64 1013.8
20260505185557 62 261 4.3 11.3 0.00 0.00 0.00 65 1013.9
20260505185057 61 188 6.1 11.3 0.00 0.00 0.00 66 1013.8
20260505184558 61 227 5.2 11.3 0.00 0.00 0.00 67 1013.7
20260505184056 61 168 6.1 11.3 0.00 0.00 0.00 68 1013.8
20260505183558 61 226 3.5 11.3 0.00 0.00 0.00 67 1013.8
20260505183058 61 161 4.3 9.6 0.00 0.00 0.00 68 1013.7
20260505182555 60 151 5.2 9.6 0.00 0.00 0.00 69 1013.9
20260505182052 60 302 5.2 10.4 0.00 0.00 0.00 69 1013.9
20260505181558 60 195 3.5 10.4 0.00 0.00 0.00 70 1013.9
20260505181053 60 215 4.3 9.6 0.00 0.00 0.00 71 1013.9
20260505180552 60 198 4.3 9.6 0.00 0.00 0.00 71 1013.9
20260505180053 60 250 4.3 9.6 0.00 0.00 0.00 71 1013.8
20260505175554 60 209 3.5 9.6 0.00 0.00 0.00 72 1013.7
20260505175055 60 200 5.2 11.3 0.00 0.00 0.00 71 1013.8
20260505174602 60 162 5.2 11.3 0.00 0.00 0.00 72 1013.7
20260505174052 60 284 6.1 11.3 0.00 0.00 0.00 72 1013.7
20260505173553 60 278 4.3 8.7 0.00 0.00 0.00 71 1013.6
20260505173058 60 298 3.5 7.0 0.00 0.00 0.00 71 1013.6
20260505172555 60 213 2.6 8.7 0.00 0.00 0.00 71 1013.5
20260505172055 60 171 4.3 8.7 0.00 0.00 0.00 70 1013.5
20260505171554 60 252 2.6 8.7 0.00 0.00 0.00 73 1013.5
20260505171052 60 227 4.3 9.6 0.00 0.00 0.00 72 1013.4
20260505170552 60 203 4.3 9.6 0.00 0.00 0.00 71 1013.4
20260505170056 61 205 3.5 8.7 0.00 0.00 0.00 71 1013.3
20260505165556 60 256 2.6 9.6 0.00 0.00 0.00 71 1013.2
20260505165052 60 174 5.2 9.6 0.00 0.00 0.00 70 1013.2
20260505164616 61 284 3.5 7.8 0.00 0.00 0.00 70 1013.1
20260505164059 61 192 3.5 7.8 0.00 0.00 0.00 68 1013.1
20260505163555 61 213 3.5 7.8 0.00 0.00 0.00 68 1013.0
20260505163105 61 324 1.7 7.8 0.00 0.00 0.00 69 1013.0
20260505162555 61 165 2.6 7.8 0.00 0.00 0.00 69 1013.0
20260505162055 60 313 1.7 7.8 0.00 0.00 0.00 68 1013.0
20260505161615 60 182 3.5 7.8 0.00 0.00 0.00 68 1012.9
20260505161056 61 230 2.6 6.1 0.00 0.00 0.00 68 1012.9
20260505160555 61 197 0.9 6.1 0.00 0.00 0.00 69 1012.9
20260505153107 60 165 1.7 4.3 0.00 0.00 0.00 69 1012.9
20260505152552 60 283 0.9 4.3 0.00 0.00 0.00 70 1012.9
20260505152051 61 242 0.9 5.2 0.00 0.00 0.00 69 1012.7
20260505151556 61 193 0.0 5.2 0.00 0.00 0.00 69 1012.7
20260505151100 61 92 0.0 1.7 0.00 0.00 0.00 68 1012.7
20260505150556 61 0 0.0 3.5 0.00 0.00 0.00 69 1012.6
20260505140553 53 346 0.9 4.3 0.00 0.00 0.00 82 1012.5
20260505130125 53 0 0.0 0.9 0.00 0.00 0.00 83 1012.0
20260505124617 53 0 0.0 0.0 0.00 0.00 0.00 83 1012.0
20260505124052 53 0 0.0 0.9 0.00 0.00 0.00 83 1012.0
20260505123552 54 0 0.0 1.7 0.00 0.00 0.00 83 1012.0
20260505123116 54 0 0.0 2.6 0.00 0.00 0.00 82 1012.0
20260505122555 54 0 0.9 2.6 0.00 0.00 0.00 83 1012.0
20260505122056 54 0 0.0 2.6 0.00 0.00 0.00 83 1012.1
20260505121600 54 330 0.9 2.6 0.00 0.00 0.00 83 1012.0
20260505121058 55 0 0.0 2.6 0.00 0.00 0.00 83 1012.0